Regional Weather Roundup
Issued by NWS

Home | Current Version | Previous Version | Graphics & Text | Print | Product List | Glossary On
Versions: 1 2 3 4 5 6 7 8 9 10 11 12 13 14 15 16 17 18 19 20 21 22 23 24 25 26 27 28 29 30 31 32 33 34 35 36 37 38 39 40 41 42 43 44 45 46 47 48 49 50
000
ASUS43 KLSX 172359
RWRMO

WEATHER SUMMARY FOR MISSOURI
NATIONAL WEATHER SERVICE SPRINGFIELD MO
600 PM CST WED DEC 17 2014

NOTE: "FAIR" INDICATES FEW OR NO CLOUDS BELOW 12,000 FEET WITH NO
       SIGNIFICANT WEATHER AND/OR OBSTRUCTIONS TO VISIBILITY.
       CURRENT SKY AND/OR WEATHER CONDITIONS ARE NOT AVAILABLE FOR
       CHILLICOTHE AND FARMINGTON.

MOZ001>031-035>038-043-044-053-054-180100-
...NORTHERN AND WESTERN MISSOURI...

CITY           SKY/WX    TMP DP  RH WIND       PRES   REMARKS
KANSAS CTY INT CLOUDY    29  21  72 E6        30.24F WCI  23
6HR MIN TEMP:  27; 6HR MAX TEMP:  30;

KANSAS C DTWN  CLOUDY    31  20  63 E8        30.25F WCI  23
6HR MIN TEMP:  29; 6HR MAX TEMP:  32;

LEE`S SUMMIT   CLOUDY    30  21  69 NE7       30.24F WCI  23
6HR MIN TEMP:  28; 6HR MAX TEMP:  31;

ST JOSEPH      CLOUDY    29  21  72 E6        30.26F WCI  23
6HR MIN TEMP:  27; 6HR MAX TEMP:  30;

CHILLICOTHE      N/A     30  20  66 CALM      30.29S
6HR MIN TEMP:  26; 6HR MAX TEMP:  30;

KIRKSVILLE     MOCLDY    26  21  81 NE6       30.27F WCI  19
6HR MIN TEMP:  24; 6HR MAX TEMP:  33;


$$
MOZ066>068-077>081-088>096-101>105-180100-
...SOUTHWEST MISSOURI...

CITY           SKY/WX    TMP DP  RH WIND       PRES   REMARKS
SPRINGFIELD    LGT RAIN  35  30  82 E3        30.19F
6HR MIN TEMP:  31; 6HR MAX TEMP:  35; 6HR PCP:  0.01;

JOPLIN         LGT RAIN  33  30  88 VRB5      30.22R FOG     WCI  29
6HR MIN TEMP:  31; 6HR MAX TEMP:  34; 6HR PCP:  0.06;


$$
MOZ032>034-039>042-045>050-055>058-069>072-180100-
...CENTRAL MISSOURI...

CITY           SKY/WX    TMP DP  RH WIND       PRES   REMARKS
COLUMBIA       MOCLDY    33  24  69 CALM      30.26S
6HR MIN TEMP:  32; 6HR MAX TEMP:  34;

JEFFERSON CITY CLOUDY    35  23  61 NE3       30.28S
6HR MIN TEMP:  34; 6HR MAX TEMP:  36;

ROLLA          CLOUDY    34  23  64 NE3       30.23S
6HR MIN TEMP:  33; 6HR MAX TEMP:  34;

SEDALIA        CLOUDY    33  23  66 NE5       30.27R WCI  29
6HR MIN TEMP:  30; 6HR MAX TEMP:  33;

OSAGE BEACH    CLOUDY    34  21  60 NE3       30.25S

$$
MOZ051-052-059>065-180100-
...EAST CENTRAL MISSOURI...

CITY           SKY/WX    TMP DP  RH WIND       PRES   REMARKS
ST LOUIS INTL  MOCLDY    36  24  62 N3        30.29R
6HR MIN TEMP:  36; 6HR MAX TEMP:  39;

SPIRIT OF STL  CLOUDY   N/A N/A N/A NE3       30.27F
ST CHARLES     MOCLDY    31  26  82 NE8       30.29S WCI  23
6HR MIN TEMP:  29; 6HR MAX TEMP:  37;


$$
MOZ072>076-082>087-097>100-106>115-180100-
...SOUTH CENTRAL AND SOUTHEAST MISSOURI...

CITY           SKY/WX    TMP DP  RH WIND       PRES   REMARKS
CAPE GIRARDEAU MOCLDY    38  32  79 CALM      30.28F
6HR MIN TEMP:  36; 6HR MAX TEMP:  39;

FARMINGTON     CLOUDY    37  27  65 CALM      30.27S
6HR MIN TEMP:  36; 6HR MAX TEMP:  39;

POPLAR BLUFF   CLOUDY    38  28  67 S3        30.28R
6HR MIN TEMP:  36; 6HR MAX TEMP:  41;

WEST PLAINS    LGT RAIN  38  28  67 SE5       30.23S
6HR MIN TEMP:  36; 6HR MAX TEMP:  40; 6HR PCP: TRACE;


$$


USA.gov is the U.S. government's official web portal to all federal, state and local government web resources and services.